IST,Max TemperatureF,Mean TemperatureF,Min TemperatureF,Max Dew PointF,MeanDew PointF,Min DewpointF,Max Humidity, Mean Humidity, Min Humidity, Max Sea Level PressureIn, Mean Sea Level PressureIn, Min Sea Level PressureIn, Max VisibilityMiles, Mean VisibilityMiles, Min VisibilityMiles, Max Wind SpeedMPH, Mean Wind SpeedMPH, Max Gust SpeedMPH,PrecipitationIn, CloudCover, Events, WindDirDegrees
2011-10-1,91,82,73,73,69,64,78,65,46,29.77,29.68,29.62,4,3,2,12,4,,0.00,1,,289
2011-10-2,91,82,73,72,70,68,83,66,46,29.74,29.66,29.62,4,3,2,9,5,,0.00,1,,267
2011-10-3,91,83,75,75,71,68,89,70,52,29.74,29.69,29.65,3,3,2,7,3,,0.00,5,,272
2011-10-4,93,84,75,73,71,68,94,66,44,29.77,29.72,29.68,4,3,2,4,1,,0.00,1,,296
2011-10-5,91,84,77,77,73,70,89,72,49,29.89,29.80,29.74,4,3,1,4,1,,0.00,3,,30
2011-10-6,91,84,77,79,76,73,94,76,59,29.92,29.83,29.80,3,2,1,9,1,,0.00,2,Fog-Rain,13
2011-10-7,93,85,77,75,73,70,89,71,46,29.89,29.82,29.74,2,2,1,5,1,,0.00,3,,300
2011-10-8,93,84,75,75,73,70,89,72,46,29.89,29.82,29.74,4,2,1,4,1,,0.00,3,,300
2011-10-9,93,84,75,75,73,70,94,72,46,29.89,29.83,29.77,3,2,1,5,1,,0.00,2,Fog,295
2011-10-10,93,84,75,75,72,66,94,72,46,29.92,29.86,29.83,3,2,1,6,1,,0.00,,,288
2011-10-11,93,82,71,72,67,63,89,66,36,29.95,29.87,29.83,4,2,1,5,1,,0.00,1,,243
2011-10-12,93,81,69,70,66,61,88,66,34,29.95,29.85,29.80,4,3,2,5,1,,0.00,1,,286
2011-10-13,91,80,68,70,66,64,94,65,41,29.86,29.78,29.74,3,3,2,6,2,,0.00,2,,280
2011-10-14,93,82,71,68,65,63,73,58,41,29.83,29.75,29.71,4,3,2,9,4,,0.00,1,,279
2011-10-15,91,81,69,66,64,61,83,62,36,29.80,29.75,29.71,4,3,2,7,3,,0.00,2,,306
2011-10-16,91,80,69,64,61,54,83,57,28,29.83,29.78,29.74,4,3,2,7,2,,0.00,,,302
2011-10-17,91,78,64,64,60,50,88,58,24,29.89,29.81,29.77,4,3,1,6,1,,0.00,,,314
2011-10-18,89,76,64,64,61,57,88,59,33,29.89,29.83,29.77,4,2,2,5,2,,0.00,,,300
2011-10-19,89,76,64,72,61,52,88,65,27,29.83,29.76,29.68,2,2,1,7,2,,0.00,2,,270
2011-10-20,89,76,64,66,62,59,88,66,38,29.80,29.76,29.71,3,2,1,6,1,,0.00,2,,110
2011-10-21,89,79,69,63,61,54,78,56,31,29.83,29.79,29.74,2,2,1,9,4,,0.00,2,,57
2011-10-22,89,78,66,68,64,63,88,65,40,29.89,29.84,29.80,3,2,1,4,1,,0.00,1,,293
2011-10-23,87,76,66,68,65,63,88,69,46,29.95,29.86,29.80,2,2,1,5,1,,0.00,,,291
2011-10-24,89,78,68,66,64,61,88,66,38,29.92,29.86,29.80,2,2,1,6,1,,0.00,,,283
2011-10-25,89,78,66,73,65,61,88,70,40,29.92,29.84,29.80,2,2,1,4,1,,0.00,,,140
2011-10-26,89,78,66,68,63,54,94,66,29,29.95,29.88,29.83,2,2,1,5,1,,0.00,2,,296
2011-10-27,86,74,62,63,59,50,88,65,29,29.98,29.89,29.86,3,2,1,6,1,,0.00,,,290
2011-10-28,86,72,59,61,54,46,88,60,27,29.98,29.92,29.86,3,2,1,6,1,,0.00,,,302
2011-10-29,86,72,59,57,55,50,88,60,29,30.01,29.91,29.83,2,2,1,5,1,,0.00,,,343
2011-10-30,84,72,59,61,57,54,94,67,35,29.92,29.84,29.80,3,2,1,5,1,,0.00,,,304
2011-10-31,86,73,60,75,60,55,94,71,37,29.95,29.86,29.80,2,2,1,6,1,,0.00,,,276